VINASAT-2

Last updated on Thu Nov 21 2024 00:02:42 GMT+0000 (Coordinated Universal Time)

1 38332U 12023B 24324.96410330 -.00000328 00000+0 00000+0 0 9990 2 38332 0.0343 45.7720 0002611 197.6656 294.9719 1.00270967 40902
UTC large
Height (km)
Speed (km/s)
/
Latitude / Longitude
Inclination (degrees)
Orbital Period (minutes)
Azimuth
Elevation
Range (km)
Doppler Factor

Next 0 passes for location: London (51.5072 / 0.1276)

Sorry there are no passes over London.